• In Belarus
  • List of Countries
  • For 7 days
  • Water Temperature
  • Satellite Maps
  • Weather Map
  • Weather Widgets
  • user-avatar
    Login

    Hourly Weather Steinkjer

    Today, 16 July, Monday

    Time Temperature Precipitation Wind Pressure Humidity
    00:00 +16°C° 0 mm 1 mps 755 mmHg 80%
    01:00 +16°C° 0 mm 1 mps 755 mmHg 80%
    02:00 +16°C° 0 mm 1 mps 755 mmHg 80%
    03:00 +17°C° 0 mm 2 mps 755 mmHg 79%
    04:00 +17°C° 0 mm 2 mps 755 mmHg 79%
    05:00 +18°C° 0 mm 2 mps 754 mmHg 73%
    06:00 +20°C° 0 mm 2 mps 754 mmHg 68%
    07:00 +22°C° 0 mm 3 mps 754 mmHg 61%
    08:00 +25°C° 0 mm 3 mps 754 mmHg 56%
    09:00 +27°C° 0 mm 3 mps 754 mmHg 50%
    10:00 +28°C° 0 mm 3 mps 753 mmHg 45%
    11:00 +29°C° 0 mm 3 mps 753 mmHg 41%
    12:00 +30°C° 0 mm 4 mps 753 mmHg 36%
    13:00 +33°C° 0 mm 4 mps 753 mmHg 31%
    14:00 +33°C° 0 mm 4 mps 753 mmHg 31%
    15:00 +33°C° 0 mm 4 mps 753 mmHg 31%
    16:00 +33°C° 0 mm 4 mps 753 mmHg 31%
    17:00 +30°C° 0 mm 3 mps 753 mmHg 37%
    18:00 +29°C° 0 mm 3 mps 753 mmHg 44%
    19:00 +28°C° 0 mm 2 mps 753 mmHg 50%
    20:00 +25°C° 0 mm 2 mps 753 mmHg 59%
    21:00 +21°C° 0 mm 2 mps 753 mmHg 68%
    22:00 +19°C° 0 mm 1 mps 754 mmHg 77%
    23:00 +18°C° 0 mm 1 mps 754 mmHg 81%

    Tomorrow, 17 July, Tuesday

    Time Temperature Precipitation Wind Pressure Humidity
    00:00 +16°C° 0 mm 1 mps 754 mmHg 84%
    01:00 +15°C° 0 mm 1 mps 755 mmHg 87%
    02:00 +16°C° 0 mm 1 mps 755 mmHg 86%
    03:00 +16°C° 0 mm 1 mps 755 mmHg 85%
    04:00 +15°C° 0 mm 0 mps 755 mmHg 85%
    05:00 +19°C° 0 mm 1 mps 755 mmHg 76%
    06:00 +21°C° 0 mm 1 mps 755 mmHg 68%
    07:00 +23°C° 0 mm 1 mps 755 mmHg 60%
    08:00 +25°C° 0 mm 2 mps 755 mmHg 52%
    09:00 +27°C° 0 mm 3 mps 755 mmHg 44%
    10:00 +29°C° 0 mm 3 mps 755 mmHg 37%
    11:00 +30°C° 0 mm 4 mps 754 mmHg 35%
    12:00 +32°C° 0 mm 4 mps 754 mmHg 34%
    13:00 +32°C° 0 mm 4 mps 754 mmHg 32%
    14:00 +32°C° 0 mm 4 mps 754 mmHg 34%
    15:00 +32°C° 0 mm 4 mps 754 mmHg 35%
    16:00 +32°C° 0 mm 4 mps 754 mmHg 37%
    17:00 +30°C° 0 mm 3 mps 754 mmHg 41%
    18:00 +29°C° 0 mm 3 mps 754 mmHg 44%
    19:00 +29°C° 0 mm 2 mps 754 mmHg 48%
    20:00 +27°C° 0 mm 2 mps 754 mmHg 52%
    21:00 +25°C° 0 mm 2 mps 754 mmHg 57%
    22:00 +23°C° 0 mm 2 mps 754 mmHg 61%
    23:00 +21°C° 0 mm 2 mps 754 mmHg 63%

    Day after tomorrow, 18 July, Wednesday

    Time Temperature Precipitation Wind Pressure Humidity
    00:00 +21°C° 0 mm 2 mps 754 mmHg 64%
    01:00 +20°C° 0 mm 2 mps 754 mmHg 65%
    02:00 +20°C° 0 mm 2 mps 754 mmHg 66%
    03:00 +20°C° 0 mm 2 mps 754 mmHg 67%
    04:00 +20°C° 0 mm 2 mps 754 mmHg 69%
    05:00 +21°C° 0 mm 2 mps 754 mmHg 64%
    06:00 +24°C° 0 mm 3 mps 754 mmHg 59%
    07:00 +25°C° 0 mm 4 mps 754 mmHg 54%
    08:00 +27°C° 0 mm 4 mps 754 mmHg 49%
    09:00 +28°C° 0 mm 5 mps 753 mmHg 44%
    10:00 +29°C° 0 mm 6 mps 753 mmHg 39%
    11:00 +29°C° 0 mm 6 mps 753 mmHg 39%
    12:00 +30°C° 0 mm 6 mps 752 mmHg 39%
    13:00 +30°C° 0 mm 6 mps 752 mmHg 38%
    14:00 +30°C° 0.1 mm 6 mps 752 mmHg 41%
    15:00 +29°C° 0.1 mm 5 mps 752 mmHg 43%
    16:00 +29°C° 0.1 mm 5 mps 752 mmHg 46%
    17:00 +27°C° 0.3 mm 4 mps 752 mmHg 54%
    18:00 +26°C° 0.3 mm 3 mps 752 mmHg 62%
    19:00 +24°C° 0.3 mm 2 mps 752 mmHg 70%
    20:00 +23°C° 1.1 mm 2 mps 752 mmHg 76%
    21:00 +20°C° 1.1 mm 2 mps 752 mmHg 82%
    22:00 +20°C° 1.1 mm 1 mps 752 mmHg 88%
    23:00 +20°C° 1.2 mm 1 mps 752 mmHg 90%

    19 July, Thursday

    Time Temperature Precipitation Wind Pressure Humidity
    00:00 +19°C° 1.2 mm 1 mps 753 mmHg 92%
    01:00 +19°C° 1.2 mm 1 mps 753 mmHg 94%
    02:00 +18°C° 1.8 mm 2 mps 753 mmHg 94%
    03:00 +17°C° 1.8 mm 2 mps 753 mmHg 94%
    04:00 +17°C° 1.8 mm 3 mps 754 mmHg 95%
    05:00 +17°C° 1.2 mm 3 mps 754 mmHg 95%
    06:00 +17°C° 1.2 mm 2 mps 754 mmHg 95%
    07:00 +16°C° 1.2 mm 2 mps 755 mmHg 96%
    08:00 +16°C° 0.4 mm 2 mps 755 mmHg 96%
    09:00 +16°C° 0.4 mm 2 mps 755 mmHg 95%
    10:00 +15°C° 0.4 mm 2 mps 756 mmHg 95%
    11:00 +16°C° 0 mm 2 mps 756 mmHg 91%
    12:00 +17°C° 0 mm 2 mps 756 mmHg 87%
    13:00 +18°C° 0 mm 1 mps 756 mmHg 83%
    14:00 +18°C° 0 mm 2 mps 756 mmHg 80%
    15:00 +18°C° 0 mm 2 mps 756 mmHg 77%
    16:00 +19°C° 0 mm 2 mps 756 mmHg 74%
    17:00 +18°C° 0 mm 2 mps 756 mmHg 74%
    18:00 +18°C° 0 mm 2 mps 756 mmHg 75%
    19:00 +18°C° 0 mm 2 mps 756 mmHg 75%
    20:00 +17°C° 0 mm 2 mps 755 mmHg 80%
    21:00 +16°C° 0 mm 2 mps 755 mmHg 85%
    22:00 +15°C° 0 mm 2 mps 755 mmHg 90%
    23:00 +15°C° 0 mm 1 mps 755 mmHg 92%

    20 July, Friday

    Time Temperature Precipitation Wind Pressure Humidity
    00:00 +14°C° 0 mm 1 mps 754 mmHg 93%
    01:00 +14°C° 0 mm 1 mps 754 mmHg 94%
    02:00 +14°C° 0 mm 1 mps 754 mmHg 94%
    03:00 +14°C° 0 mm 1 mps 753 mmHg 94%
    04:00 +14°C° 0 mm 1 mps 753 mmHg 94%
    05:00 +16°C° 0 mm 1 mps 753 mmHg 89%
    06:00 +18°C° 0 mm 1 mps 752 mmHg 83%
    07:00 +20°C° 0 mm 1 mps 752 mmHg 78%
    08:00 +21°C° 0.4 mm 1 mps 752 mmHg 74%
    09:00 +23°C° 0.4 mm 1 mps 751 mmHg 69%
    10:00 +24°C° 0.4 mm 1 mps 751 mmHg 65%
    11:00 +25°C° 0.3 mm 2 mps 750 mmHg 61%
    12:00 +26°C° 0.3 mm 2 mps 750 mmHg 58%
    13:00 +27°C° 0.3 mm 3 mps 750 mmHg 54%
    14:00 +26°C° 0.3 mm 3 mps 750 mmHg 56%
    15:00 +26°C° 0.3 mm 3 mps 749 mmHg 58%
    16:00 +26°C° 0.3 mm 3 mps 749 mmHg 60%
    17:00 +25°C° 0.2 mm 2 mps 749 mmHg 66%
    18:00 +24°C° 0.2 mm 2 mps 749 mmHg 71%
    19:00 +23°C° 0.2 mm 1 mps 748 mmHg 77%
    20:00 +22°C° 0.1 mm 1 mps 748 mmHg 80%
    21:00 +21°C° 0.1 mm 1 mps 748 mmHg 82%
    22:00 +20°C° 0.1 mm 1 mps 748 mmHg 85%
    23:00 +19°C° 0.2 mm 1 mps 748 mmHg 87%

    21 July, Saturday

    Time Temperature Precipitation Wind Pressure Humidity
    00:00 +18°C° 0.2 mm 1 mps 748 mmHg 88%
    01:00 +16°C° 0.2 mm 1 mps 748 mmHg 90%
    02:00 +16°C° 0 mm 1 mps 748 mmHg 91%
    03:00 +16°C° 0 mm 1 mps 748 mmHg 92%
    04:00 +16°C° 0 mm 1 mps 747 mmHg 93%
    05:00 +18°C° 0.1 mm 1 mps 747 mmHg 89%
    06:00 +19°C° 0.1 mm 1 mps 747 mmHg 86%
    07:00 +20°C° 0.1 mm 1 mps 747 mmHg 82%
    08:00 +21°C° 0.2 mm 1 mps 747 mmHg 78%
    09:00 +22°C° 0.2 mm 1 mps 747 mmHg 75%
    10:00 +23°C° 0.2 mm 1 mps 747 mmHg 71%
    11:00 +24°C° 0.5 mm 1 mps 747 mmHg 68%
    12:00 +25°C° 0.5 mm 2 mps 747 mmHg 64%
    13:00 +25°C° 0.5 mm 2 mps 747 mmHg 61%
    14:00 +25°C° 0.9 mm 2 mps 747 mmHg 65%
    15:00 +24°C° 0.9 mm 3 mps 746 mmHg 69%
    16:00 +24°C° 0.9 mm 3 mps 746 mmHg 73%
    17:00 +22°C° 0.6 mm 3 mps 746 mmHg 76%
    18:00 +21°C° 0.6 mm 2 mps 746 mmHg 80%
    19:00 +20°C° 0.6 mm 2 mps 746 mmHg 84%
    20:00 +19°C° 0.4 mm 2 mps 747 mmHg 87%
    21:00 +17°C° 0.4 mm 2 mps 747 mmHg 90%
    22:00 +16°C° 0.4 mm 2 mps 747 mmHg 93%
    23:00 +16°C° 0.2 mm 2 mps 747 mmHg 93%
    Show more